• Join FlightAware (Why Join?)
  • Login
  • US Flag 
03:12AM EST


 

Airport Tracker/Info


-or-


 

Live Flight TrackerFlight Track Log ✈ N27901 ✈ 06-Jun-2013 ✈ KIAH - KDEN

Flight Track Log - Related Links

Times and Time Zones

All times are in EDT time to prevent confusion due to time zone crossing. See the N27901 flight status page for this flight to view local times or setup timezone preferences in your user account.

Time Position Orientation Groundspeed Altitude Reporting Facility
EDT Latitude Longitude Course Direction KTS MPH feet Rate Location/Type
07:27AM 29.9667 -95.3451 153° Southeast 165 190 600  Level FlightAware ADS-B
07:28AM 29.9528 -95.3415 167° South 165 190 1,400 2,609 Climbing FlightAware ADS-B
07:28AM 29.9498 -95.3425 196° South 169 194 1,600 2,250 Climbing FlightAware ADS-B
07:28AM 29.9472 -95.3440 207° Southwest 174 200 1,700 1,500 Climbing FlightAware ADS-B
07:28AM 29.9445 -95.3463 216° Southwest 180 207 1,800 1,714 Climbing FlightAware ADS-B
07:28AM 29.9427 -95.3485 227° Southwest 185 213 1,900 1,800 Climbing FlightAware ADS-B
07:28AM 29.9389 -95.3539 231° Southwest 196 226 2,100 2,000 Climbing FlightAware ADS-B
07:28AM 29.9345 -95.3610 234° Southwest 208 239 2,400 2,323 Climbing FlightAware ADS-B
07:28AM 29.9210 -95.3841 236° Southwest 233 268 3,300 2,550 Climbing FlightAware ADS-B
07:29AM 29.9100 -95.4029 236° Southwest 257 296 4,100 3,000 Climbing FlightAware ADS-B
07:29AM 29.9067 -95.4091 238° Southwest 260 299 4,400 3,750 Climbing FlightAware ADS-B
07:29AM 29.9049 -95.4127 240° Southwest 261 300 4,600 3,750 Climbing FlightAware ADS-B
07:29AM 29.9023 -95.4183 242° Southwest 263 303 4,900 3,200 Climbing FlightAware ADS-B
07:29AM 29.8992 -95.4323 255° West 273 314 5,400 3,000 Climbing FlightAware ADS-B
07:29AM 29.8988 -95.4452 276° West 280 322 5,800 3,200 Climbing FlightAware ADS-B
07:29AM 29.9001 -95.4547 279° West 283 326 6,200 3,600 Climbing FlightAware ADS-B
07:29AM 29.9014 -95.4599 286° West 284 327 6,400 4,400 Climbing FlightAware ADS-B
07:30AM 29.9067 -95.4775 289° West 285 328 7,300 4,071 Climbing FlightAware ADS-B
07:30AM 29.9131 -95.5002 288° West 286 329 8,300 3,387 Climbing FlightAware ADS-B
07:31AM 29.9314 -95.5672 288° West 300 345 10,800 2,186 Climbing FlightAware ADS-B
07:32AM 29.9805 -95.7410 288° West 419 482 13,400 1,935 Climbing FlightAware ADS-B
07:33AM 29.9989 -95.8065 288° West 436 502 14,800 3,025 Climbing FlightAware ADS-B
07:34AM 30.0569 -96.0146 288° West 458 527 19,500 3,322 Climbing FlightAware ADS-B
07:35AM 30.0733 -96.0851 285° West 448 516 21,500 3,200 Climbing FlightAware ADS-B
07:35AM 30.0849 -96.1560 281° West 454 522 22,700 1,983 Climbing FlightAware ADS-B
07:37AM 30.1190 -96.3769 280° West 479 551 25,500 1,884 Climbing FlightAware ADS-B
07:37AM 30.1309 -96.4538 280° West 487 560 26,500 3,200 Climbing FlightAware ADS-B
07:38AM 30.1424 -96.5295 280° West 463 533 28,700 4,300 Climbing FlightAware ADS-B
07:38AM 30.1530 -96.6005 280° West 444 511 30,800 2,152 Climbing FlightAware ADS-B
07:39AM 30.1794 -96.7466 286° West 472 543 32,000 783 Climbing FlightAware ADS-B
07:40AM 30.2045 -96.8185 292° West 491 565 32,000 122 Level FlightAware ADS-B
07:40AM 30.2239 -96.8632 298° West 495 570 32,100 882 Climbing FlightAware ADS-B
07:40AM 30.2423 -96.8949 304° West 497 572 32,500 1,615 Climbing FlightAware ADS-B
07:41AM 30.2591 -96.9187 309° West 496 571 32,800 577 Climbing FlightAware ADS-B
07:41AM 30.3273 -96.9951 317° Northwest 496 571 33,000 167 Climbing FlightAware ADS-B
07:42AM 30.3775 -97.0505 316° Northwest 498 573 33,000  Level FlightAware ADS-B
07:42AM 30.4290 -97.1071 317° Northwest 498 573 33,000 98 Level FlightAware ADS-B
07:43AM 30.4793 -97.1626 316° Northwest 498 573 33,100 1,100 Climbing FlightAware ADS-B
07:43AM 30.5297 -97.2181 317° Northwest 496 571 34,100 2,242 Climbing FlightAware ADS-B
07:44AM 30.6292 -97.3277 316° Northwest 480 552 36,500 2,110 Climbing FlightAware ADS-B
07:45AM 30.6771 -97.3809 316° Northwest 478 550 37,300 1,672 Climbing FlightAware ADS-B
07:45AM 30.7260 -97.4353 316° Northwest 474 545 38,200 1,516 Climbing FlightAware ADS-B
07:46AM 30.8266 -97.5469 316° Northwest 466 536 39,700 1,137 Climbing FlightAware ADS-B
07:47AM 30.8745 -97.6005 316° Northwest 462 532 40,000 290 Climbing FlightAware ADS-B
07:47AM 30.9222 -97.6536 316° Northwest 459 528 40,000  Level FlightAware ADS-B
07:48AM 31.0176 -97.7602 316° Northwest 458 527 40,000  Level FlightAware ADS-B
07:49AM 31.0634 -97.8114 316° Northwest 458 527 40,000  Level FlightAware ADS-B
07:49AM 31.1118 -97.8658 316° Northwest 457 526 40,000  Level FlightAware ADS-B
07:50AM 31.1582 -97.9179 316° Northwest 455 524 40,000  Level FlightAware ADS-B
07:50AM 31.1934 -97.9561 317° Northwest 457 526 40,000  Level FlightAware ADS-B
07:51AM 31.2511 -98.0044 324° Northwest 462 532 40,000  Level FlightAware ADS-B
07:51AM 31.3066 -98.0427 329° Northwest 462 532 40,000  Level FlightAware ADS-B
07:52AM 31.3782 -98.0925 329° Northwest 462 532 40,000  Level FlightAware ADS-B
07:53AM 31.4590 -98.1490 329° Northwest 465 535 40,000  Level FlightAware
07:53AM 31.5376 -98.2038 329° Northwest 469 540 40,000  Level FlightAware ADS-B
07:54AM 31.5936 -98.2429 329° Northwest 472 543 40,000  Level FlightAware ADS-B
07:55AM 31.6746 -98.2996 329° Northwest 472 543 40,000  Level FlightAware ADS-B
07:56AM 31.7690 -98.3660 329° Northwest 475 547 40,000  Level FlightAware
07:56AM 31.8410 -98.4170 329° Northwest 477 549 40,000  Level FlightAware
07:57AM 31.9240 -98.4750 329° Northwest 478 550 40,000  Level FlightAware
07:58AM 32.0120 -98.5370 329° Northwest 477 549 40,000  Level FlightAware
07:58AM 32.0850 -98.5890 329° Northwest 477 549 40,000  Level FlightAware
07:59AM 32.1680 -98.6470 329° Northwest 477 549 40,000  Level FlightAware
08:00AM 32.2440 -98.7020 329° Northwest 477 549 40,000  Level FlightAware
08:00AM 32.3180 -98.7550 329° Northwest 477 549 40,000  Level FlightAware
08:01AM 32.4000 -98.8130 329° Northwest 478 550 40,000  Level FlightAware
08:02AM 32.4850 -98.8740 329° Northwest 479 551 40,000  Level FlightAware
08:02AM 32.5581 -98.9261 329° Northwest 481 554 40,000  Level FlightAware ADS-B
08:03AM 32.6430 -98.9870 329° Northwest 481 554 40,000  Level FlightAware
08:03AM 32.6679 -99.0049 329° Northwest 482 555 40,000  Level FlightAware ADS-B
08:04AM 32.7323 -99.0513 329° Northwest 482 555 40,000  Level FlightAware ADS-B
08:05AM 32.7964 -99.0974 329° Northwest 478 550 40,000  Level FlightAware ADS-B
08:05AM 32.8539 -99.1390 329° Northwest 479 551 40,000  Level FlightAware ADS-B
08:06AM 32.9126 -99.1815 329° Northwest 480 552 40,000  Level FlightAware ADS-B
08:06AM 32.9754 -99.2270 329° Northwest 483 556 40,000  Level FlightAware ADS-B
08:07AM 33.0370 -99.2717 329° Northwest 485 558 40,000  Level FlightAware ADS-B
08:07AM 33.1155 -99.3288 329° Northwest 485 558 40,000  Level FlightAware ADS-B
08:08AM 33.1881 -99.3816 329° Northwest 487 560 40,000  Level FlightAware ADS-B
08:09AM 33.2496 -99.4265 329° Northwest 483 556 40,000  Level FlightAware ADS-B
08:09AM 33.3096 -99.4704 329° Northwest 480 552 40,000  Level FlightAware ADS-B
08:10AM 33.3675 -99.5129 328° Northwest 480 552 40,000  Level FlightAware ADS-B
08:10AM 33.4280 -99.5573 329° Northwest 479 551 40,000  Level FlightAware ADS-B
08:11AM 33.4854 -99.5994 329° Northwest 479 551 40,000  Level FlightAware ADS-B
08:11AM 33.5455 -99.6436 328° Northwest 480 552 40,000  Level FlightAware ADS-B
08:12AM 33.6037 -99.6865 328° Northwest 480 552 40,000  Level FlightAware ADS-B
08:13AM 33.7003 -99.7579 328° Northwest 482 555 40,000  Level FlightAware ADS-B
08:13AM 33.7576 -99.8003 328° Northwest 481 554 40,000  Level FlightAware ADS-B
08:14AM 33.8166 -99.8444 328° Northwest 483 556 40,000  Level FlightAware ADS-B
08:14AM 33.8750 -99.8884 328° Northwest 481 554 40,000  Level FlightAware ADS-B
08:15AM 33.9323 -99.9316 328° Northwest 481 554 40,000  Level FlightAware ADS-B
08:15AM 33.9891 -99.9744 328° Northwest 479 551 40,000  Level FlightAware ADS-B
08:16AM 34.0450 -100.0160 328° Northwest 472 543 40,000  Level FlightAware ADS-B
08:16AM 34.1304 -100.0810 328° Northwest 464 534 40,000  Level FlightAware ADS-B
08:17AM 34.1851 -100.1230 328° Northwest 458 527 40,000  Level FlightAware ADS-B
08:17AM 34.2409 -100.1650 328° Northwest 457 526 40,000  Level FlightAware ADS-B
08:18AM 34.2989 -100.2090 328° Northwest 457 526 40,000  Level FlightAware ADS-B
08:18AM 34.3536 -100.2510 328° Northwest 457 526 40,000  Level FlightAware ADS-B
08:19AM 34.4089 -100.2930 328° Northwest 458 527 40,000  Level FlightAware ADS-B
08:19AM 34.4638 -100.3350 328° Northwest 455 524 40,000  Level FlightAware ADS-B
08:20AM 34.5177 -100.3760 328° Northwest 457 526 40,000  Level FlightAware ADS-B
08:20AM 34.5738 -100.4190 328° Northwest 458 527 40,000  Level FlightAware ADS-B
08:21AM 34.6285 -100.4610 328° Northwest 457 526 40,000  Level FlightAware ADS-B
08:21AM 34.6828 -100.5020 328° Northwest 457 526 40,000  Level FlightAware ADS-B
08:22AM 34.7365 -100.5440 327° Northwest 459 528 40,000  Level FlightAware ADS-B
08:23AM 34.7917 -100.5860 328° Northwest 459 528 40,000  Level FlightAware ADS-B
08:23AM 34.8463 -100.6280 328° Northwest 461 531 40,000  Level FlightAware ADS-B
08:24AM 34.9011 -100.6710 327° Northwest 464 534 40,000  Level FlightAware ADS-B
08:24AM 34.9562 -100.7140 327° Northwest 464 534 40,000  Level FlightAware ADS-B
08:25AM 35.0113 -100.7560 328° Northwest 466 536 40,000  Level FlightAware ADS-B
08:25AM 35.0662 -100.7990 327° Northwest 467 537 40,000  Level FlightAware ADS-B
08:26AM 35.1211 -100.8420 327° Northwest 473 544 40,000  Level FlightAware ADS-B
08:26AM 35.1782 -100.8860 328° Northwest 479 551 40,000  Level FlightAware ADS-B
08:27AM 35.2343 -100.9300 327° Northwest 485 558 40,000  Level FlightAware ADS-B
08:27AM 35.2923 -100.9750 328° Northwest 488 562 40,000  Level FlightAware ADS-B
08:28AM 35.3506 -101.0210 327° Northwest 491 565 40,000  Level FlightAware ADS-B
08:28AM 35.4091 -101.0670 327° Northwest 493 567 40,000  Level FlightAware ADS-B
08:29AM 35.4712 -101.1160 327° Northwest 493 567 40,000  Level FlightAware ADS-B
08:29AM 35.5291 -101.1610 328° Northwest 498 573 40,000  Level FlightAware ADS-B
08:30AM 35.5877 -101.2070 327° Northwest 498 573 40,000  Level FlightAware ADS-B
08:30AM 35.6453 -101.2530 327° Northwest 497 572 40,000  Level FlightAware ADS-B
08:31AM 35.7036 -101.2990 327° Northwest 496 571 40,000  Level FlightAware ADS-B
08:31AM 35.7612 -101.3450 327° Northwest 493 567 40,000  Level FlightAware ADS-B
08:32AM 35.8188 -101.3910 327° Northwest 490 564 40,000  Level FlightAware ADS-B
08:32AM 35.8763 -101.4370 327° Northwest 490 564 40,000  Level FlightAware ADS-B
08:33AM 35.9333 -101.4820 327° Northwest 490 564 40,000  Level FlightAware ADS-B
08:33AM 35.9910 -101.5280 327° Northwest 487 560 40,000  Level FlightAware ADS-B
08:34AM 36.0480 -101.5740 327° Northwest 487 560 40,000  Level FlightAware ADS-B
08:34AM 36.1085 -101.6220 327° Northwest 488 562 40,000  Level FlightAware ADS-B
08:35AM 36.1663 -101.6690 327° Northwest 488 562 40,000  Level FlightAware ADS-B
08:35AM 36.2399 -101.7280 327° Northwest 485 558 40,000  Level FlightAware ADS-B
08:36AM 36.2970 -101.7740 327° Northwest 484 557 40,000  Level FlightAware ADS-B
08:36AM 36.3537 -101.8200 327° Northwest 485 558 40,000  Level FlightAware ADS-B
08:37AM 36.4131 -101.8680 327° Northwest 486 559 40,000  Level FlightAware ADS-B
08:37AM 36.4721 -101.9160 327° Northwest 490 564 40,000  Level FlightAware ADS-B
08:38AM 36.5300 -101.9630 327° Northwest 487 560 40,000  Level FlightAware ADS-B
08:38AM 36.5865 -102.0090 327° Northwest 482 555 40,000 -400 Level FlightAware ADS-B
08:39AM 36.6419 -102.0540 327° Northwest 480 552 39,600 -1,180 Descending FlightAware ADS-B
08:39AM 36.7003 -102.1020 327° Northwest 483 556 38,800 -1,378 Descending FlightAware ADS-B
08:40AM 36.7803 -102.1670 327° Northwest 479 551 37,900 -1,297 Descending FlightAware ADS-B
08:41AM 36.8362 -102.2130 327° Northwest 481 554 37,200 -1,475 Descending FlightAware ADS-B
08:41AM 36.8931 -102.2600 327° Northwest 483 556 36,400 -1,161 Descending FlightAware ADS-B
08:42AM 36.9531 -102.3090 327° Northwest 481 554 36,000 -387 Descending FlightAware ADS-B
08:42AM 37.0087 -102.3550 327° Northwest 480 552 36,000  Level FlightAware ADS-B
08:43AM 37.0649 -102.4020 326° Northwest 480 552 36,000  Level FlightAware ADS-B
08:43AM 37.1229 -102.4490 327° Northwest 479 551 36,000  Level FlightAware ADS-B
08:44AM 37.1941 -102.5080 327° Northwest 477 549 36,000  Level FlightAware ADS-B
08:44AM 37.2531 -102.5580 326° Northwest 476 548 36,000  Level FlightAware ADS-B
08:45AM 37.2729 -102.5740 327° Northwest 475 547 36,000  Level FlightAware ADS-B
08:45AM 37.3081 -102.6030 327° Northwest 477 549 36,000  Level FlightAware ADS-B
08:45AM 37.3280 -102.6200 326° Northwest 477 549 36,000  Level FlightAware ADS-B
08:45AM 37.3658 -102.6520 326° Northwest 479 551 36,000  Level FlightAware ADS-B
08:46AM 37.3839 -102.6670 327° Northwest 479 551 36,000  Level FlightAware ADS-B
08:46AM 37.4304 -102.7050 327° Northwest 479 551 36,000  Level FlightAware ADS-B
08:46AM 37.4392 -102.7130 324° Northwest 479 551 36,000  Level FlightAware ADS-B
08:47AM 37.4954 -102.7580 328° Northwest 480 552 36,000  Level FlightAware ADS-B
08:47AM 37.5549 -102.8000 331° Northwest 482 555 36,000  Level FlightAware ADS-B
08:48AM 37.6133 -102.8410 331° Northwest 480 552 36,000  Level FlightAware ADS-B
08:48AM 37.6722 -102.8820 331° Northwest 479 551 36,000  Level FlightAware ADS-B
08:49AM 37.7314 -102.9240 331° Northwest 479 551 36,000  Level FlightAware ADS-B
08:49AM 37.7893 -102.9640 331° Northwest 478 550 36,000  Level FlightAware ADS-B
08:49AM 37.8008 -102.9730 328° Northwest 477 549 36,000  Level FlightAware ADS-B
08:50AM 37.8471 -103.0050 331° Northwest 477 549 36,000  Level FlightAware ADS-B
08:50AM 37.9068 -103.0470 331° Northwest 476 548 36,000  Level FlightAware ADS-B
08:51AM 37.9628 -103.0870 331° Northwest 475 547 36,000  Level FlightAware ADS-B
08:51AM 38.0206 -103.1280 331° Northwest 477 549 36,000  Level FlightAware ADS-B
08:52AM 38.0799 -103.1700 331° Northwest 479 551 36,000  Level FlightAware ADS-B
08:52AM 38.1396 -103.2120 331° Northwest 481 554 36,000  Level FlightAware ADS-B
08:53AM 38.1991 -103.2540 331° Northwest 482 555 36,000  Level FlightAware ADS-B
08:53AM 38.2115 -103.2630 330° Northwest 481 554 36,000  Level FlightAware ADS-B
08:53AM 38.2574 -103.2960 331° Northwest 482 555 36,000  Level FlightAware ADS-B
08:54AM 38.3168 -103.3390 330° Northwest 481 554 36,000  Level FlightAware ADS-B
08:54AM 38.3750 -103.3800 331° Northwest 480 552 36,000  Level FlightAware ADS-B
08:55AM 38.4339 -103.4220 331° Northwest 481 554 36,000 -98 Level FlightAware ADS-B
08:55AM 38.4928 -103.4650 330° Northwest 480 552 35,900 -1,377 Descending FlightAware ADS-B
08:56AM 38.5511 -103.5070 331° Northwest 479 551 34,600 -2,800 Descending FlightAware ADS-B
08:56AM 38.6086 -103.5480 331° Northwest 477 549 33,100 -3,600 Descending FlightAware ADS-B
08:57AM 38.6641 -103.5920 328° Northwest 471 542 31,000 -4,800 Descending FlightAware ADS-B
08:57AM 38.7187 -103.6400 326° Northwest 479 551 28,300 -4,623 Descending FlightAware ADS-B
08:58AM 38.7746 -103.6900 325° Northwest 479 551 26,300 -3,387 Descending FlightAware ADS-B
08:58AM 38.8298 -103.7380 326° Northwest 459 528 24,800 -2,852 Descending FlightAware ADS-B
08:59AM 38.8821 -103.7850 325° Northwest 442 509 23,400 -2,656 Descending FlightAware ADS-B
08:59AM 38.9324 -103.8300 325° Northwest 431 496 22,100 -2,656 Descending FlightAware ADS-B
09:00AM 38.9811 -103.8730 326° Northwest 424 488 20,700 -2,800 Descending FlightAware ADS-B
09:00AM 39.0295 -103.9170 325° Northwest 421 484 19,300 -2,500 Descending FlightAware ADS-B
09:01AM 39.0772 -103.9590 326° Northwest 409 471 18,200 -1,600 Descending FlightAware ADS-B
09:01AM 39.1222 -104.0000 325° Northwest 384 442 17,700 -800 Descending FlightAware ADS-B
09:02AM 39.1641 -104.0380 325° Northwest 353 406 17,400 -500 Descending FlightAware ADS-B
09:02AM 39.2030 -104.0730 325° Northwest 330 380 17,200 -508 Descending FlightAware ADS-B
09:03AM 39.2380 -104.1040 326° Northwest 317 365 16,900 -526 Descending FlightAware ADS-B
09:03AM 39.2716 -104.1350 324° Northwest 311 358 16,700 -480 Descending FlightAware ADS-B
09:04AM 39.2980 -104.1560 328° Northwest 307 353 16,500 -429 Descending FlightAware ADS-B
09:04AM 39.3061 -104.1610 334° Northwest 307 353 16,500 -600 Level FlightAware ADS-B
09:04AM 39.3113 -104.1640 336° Northwest 307 353 16,400 -667 Descending FlightAware ADS-B
09:04AM 39.3182 -104.1670 341° North 308 354 16,400 -667 Level FlightAware ADS-B
09:04AM 39.3227 -104.1680 350° North 309 356 16,300 -923 Descending FlightAware ADS-B
09:04AM 39.3364 -104.1690 357° North 309 356 16,200 -500 Descending FlightAware ADS-B
09:04AM 39.3407 -104.1690 360° North 309 356 16,200 -1,059 Level FlightAware ADS-B
09:05AM 39.3850 -104.1670 North 306 352 15,600 -1,279 Descending FlightAware ADS-B
09:05AM 39.4274 -104.1660 North 304 350 14,900 -1,158 Descending FlightAware ADS-B
09:06AM 39.4640 -104.1660 360° North 295 339 14,500 -931 Descending FlightAware ADS-B
09:06AM 39.5056 -104.1660 360° North 287 330 14,000 -1,154 Descending FlightAware ADS-B
09:06AM 39.5340 -104.1660 360° North 286 329 13,500 -1,029 Descending FlightAware ADS-B
09:07AM 39.5526 -104.1660 360° North 280 322 13,400 -977 Descending FlightAware ADS-B
09:07AM 39.5897 -104.1660 360° North 278 320 12,800 -1,347 Descending FlightAware ADS-B
09:07AM 39.6155 -104.1660 360° North 278 320 12,300 -1,448 Descending FlightAware ADS-B
09:08AM 39.6265 -104.1670 356° North 277 319 12,100 -1,286 Descending FlightAware ADS-B
09:08AM 39.6328 -104.1690 346° North 277 319 12,000 -1,200 Descending FlightAware ADS-B
09:08AM 39.6513 -104.1770 342° North 276 318 11,700 -1,200 Descending FlightAware ADS-B
09:08AM 39.6857 -104.1970 336° Northwest 266 306 11,100 -1,082 Descending FlightAware ADS-B
09:09AM 39.7180 -104.2180 333° Northwest 250 288 10,600 -871 Descending FlightAware ADS-B
09:09AM 39.7504 -104.2380 335° Northwest 244 281 10,200 -894 Descending FlightAware ADS-B
09:10AM 39.7664 -104.2480 334° Northwest 242 278 9,900 -1,091 Descending FlightAware ADS-B
09:10AM 39.7730 -104.2520 335° Northwest 242 278 9,800 -1,200 Descending FlightAware ADS-B
09:10AM 39.7770 -104.2550 330° Northwest 243 280 9,700 -1,333 Descending FlightAware ADS-B
09:10AM 39.7818 -104.2580 334° Northwest 243 280 9,600 -1,143 Descending FlightAware ADS-B
09:10AM 39.7961 -104.2710 325° Northwest 243 280 9,300 -1,161 Descending FlightAware ADS-B
09:10AM 39.8103 -104.2840 325° Northwest 243 280 9,000 -1,200 Descending FlightAware ADS-B
09:11AM 39.8238 -104.2970 324° Northwest 242 278 8,700 -1,200 Descending FlightAware ADS-B
09:11AM 39.8283 -104.3010 326° Northwest 242 278 8,600 -667 Descending FlightAware ADS-B
09:11AM 39.8319 -104.3050 320° Northwest 242 278 8,600 -750 Level FlightAware ADS-B
09:11AM 39.8353 -104.3090 318° Northwest 241 277 8,500 -1,263 Descending FlightAware ADS-B
09:11AM 39.8468 -104.3240 315° West 240 276 8,200 -968 Descending FlightAware ADS-B
09:11AM 39.8589 -104.3400 315° West 240 276 8,000 -1,091 Descending FlightAware ADS-B
09:12AM 39.8638 -104.3470 312° West 239 275 7,800 -1,500 Descending FlightAware ADS-B
09:12AM 39.8679 -104.3540 307° West 239 275 7,700 -600 Descending FlightAware ADS-B
09:12AM 39.8708 -104.3590 307° West 239 275 7,700 -857 Level FlightAware ADS-B
09:12AM 39.8725 -104.3620 306° West 239 275 7,600 -1,500 Descending FlightAware ADS-B
09:12AM 39.8746 -104.3680 295° West 238 274 7,500 -1,333 Descending FlightAware ADS-B
09:12AM 39.8756 -104.3730 285° West 236 272 7,400 -750 Descending FlightAware ADS-B
09:12AM 39.8759 -104.3800 273° West 234 269 7,400 -857 Level FlightAware ADS-B
09:12AM 39.8755 -104.3840 263° West 233 268 7,300 -1,200 Descending FlightAware ADS-B
09:12AM 39.8735 -104.4010 261° West 234 269 7,100 -1,263 Descending FlightAware ADS-B
09:12AM 39.8729 -104.4100 265° West 235 270 6,900 -1,091 Descending FlightAware ADS-B
09:12AM 39.8729 -104.4160 270° West 236 272 6,900 -750 Level FlightAware ADS-B
09:13AM 39.8731 -104.4220 272° West 235 270 6,800  Descending FlightAware ADS-B
09:13AM 39.8749 -104.4440 276° West 219 252 6,900 444 Climbing FlightAware ADS-B
09:13AM 39.8759 -104.4580 275° West 216 249 7,000 261 Climbing FlightAware ADS-B
09:13AM 39.8762 -104.4730 271° West 211 243 7,000 -444 Level FlightAware ADS-B
09:13AM 39.8761 -104.4910 270° West 201 231 6,800 -800 Descending FlightAware ADS-B
09:14AM 39.8761 -104.5090 270° West 186 214 6,600 -774 Descending FlightAware ADS-B
09:14AM 39.8762 -104.5260 270° West 177 204 6,400 -563 Descending FlightAware ADS-B
09:14AM 39.8766 -104.5420 272° West 165 190 6,300 -581 Descending FlightAware ADS-B
09:14AM 39.8769 -104.5570 271° West 160 184 6,100 -1,000 Descending FlightAware ADS-B
09:15AM 39.8771 -104.5710 271° West 154 177 5,800 -800 Descending FlightAware ADS-B
09:15AM 39.8770 -104.5850 269° West 150 173 5,700 -581 Descending FlightAware ADS-B
09:15AM 39.8772 -104.5990 271° West 149 171 5,500 -960 Descending FlightAware ADS-B
09:15AM 39.8772 -104.6070 270° West 148 170 5,300 -1,333 Descending FlightAware ADS-B